Location: Unspecified
(39.1734°N, 0.0000°E)
Time: 07:04:35
(UTC+00:00)

N. Korean satellite - Visible Passes

Search period start: 20 September 2020 00:00
Search period end: 30 September 2020 00:00
Orbit: 455 x 503 km, 97.2° (Epoch: 19 September)

Date Brightness Start Highest point End Pass type
(mag) Time Alt. Az. Time Alt. Az. Time Alt. Az.
20 Sep 10.2 04:27:55 10° ENE 04:29:01 11° E 04:30:05 10° ESE visible
22 Sep 8.4 05:07:11 10° NNE 05:10:36 36° E 05:13:57 10° SSE visible
23 Sep 9.7 04:42:00 10° NE 04:44:27 17° E 04:46:53 10° SE visible
26 Sep 9.1 04:56:44 10° NE 04:59:51 26° E 05:02:53 10° SSE visible
27 Sep 10.0 04:32:03 10° ENE 04:33:39 13° E 04:35:15 10° ESE visible
29 Sep 8.0 05:11:44 10° NNE 05:15:11 42° E 05:18:33 10° S visible
